TimeMDT,TemperatureF,Dew PointF,Humidity,Sea Level PressureIn,VisibilityMPH,Wind Direction,Wind SpeedMPH,Gust SpeedMPH,PrecipitationIn,Events,Conditions,WindDirDegrees,DateUTC
12:53 AM,39.0,24.1,55,29.95,10.0,South,9.2,-,N/A,,Clear,170,2013-10-01 06:53:00
1:53 AM,33.1,25.0,72,29.95,10.0,SSW,5.8,-,N/A,,Clear,200,2013-10-01 07:53:00
2:53 AM,34.0,24.1,67,29.95,10.0,South,8.1,-,N/A,,Clear,190,2013-10-01 08:53:00
3:53 AM,30.0,24.1,79,29.96,10.0,SSW,6.9,-,N/A,,Clear,200,2013-10-01 09:53:00
4:53 AM,33.1,24.1,70,29.95,10.0,SSW,10.4,-,N/A,,Clear,200,2013-10-01 10:53:00
5:53 AM,32.0,24.1,73,29.96,10.0,SW,10.4,-,N/A,,Clear,220,2013-10-01 11:53:00
6:53 AM,33.1,23.0,66,29.99,10.0,South,9.2,-,N/A,,Clear,190,2013-10-01 12:53:00
7:53 AM,33.1,24.1,70,30.00,10.0,SSW,10.4,-,N/A,,Clear,210,2013-10-01 13:53:00
8:53 AM,37.0,26.1,65,29.99,10.0,SSW,12.7,-,N/A,,Clear,210,2013-10-01 14:53:00
9:53 AM,43.0,28.9,58,29.97,10.0,SW,8.1,-,N/A,,Overcast,230,2013-10-01 15:53:00
10:53 AM,48.0,30.0,50,29.96,10.0,West,4.6,-,N/A,,Partly Cloudy,280,2013-10-01 16:53:00
11:53 AM,50.0,30.0,46,29.93,10.0,Calm,Calm,-,N/A,,Mostly Cloudy,0,2013-10-01 17:53:00
12:53 PM,55.0,27.0,34,29.89,10.0,WSW,15.0,27.6,N/A,,Clear,240,2013-10-01 18:53:00
1:53 PM,57.0,28.9,34,29.89,10.0,SW,17.3,-,N/A,,Clear,230,2013-10-01 19:53:00
2:53 PM,59.0,28.9,32,29.87,10.0,SW,16.1,21.9,N/A,,Overcast,230,2013-10-01 20:53:00
3:53 PM,55.9,30.0,37,29.88,10.0,West,9.2,-,N/A,,Overcast,260,2013-10-01 21:53:00
4:53 PM,55.9,28.9,36,29.86,10.0,West,15.0,-,N/A,,Overcast,280,2013-10-01 22:53:00
5:53 PM,54.0,34.0,47,29.88,10.0,Calm,Calm,-,N/A,,Overcast,0,2013-10-01 23:53:00
6:53 PM,52.0,30.9,45,29.89,10.0,Calm,Calm,-,N/A,,Overcast,0,2013-10-02 00:53:00
7:53 PM,50.0,33.1,52,29.91,10.0,WSW,5.8,-,N/A,,Overcast,250,2013-10-02 01:53:00
8:53 PM,46.9,33.1,59,29.94,10.0,Variable,4.6,-,N/A,,Mostly Cloudy,0,2013-10-02 02:53:00
9:53 PM,42.1,30.0,62,29.96,10.0,SW,6.9,-,N/A,,Clear,220,2013-10-02 03:53:00
10:53 PM,41.0,30.0,65,29.98,10.0,SE,4.6,-,N/A,,Partly Cloudy,140,2013-10-02 04:53:00
11:53 PM,39.9,33.1,77,30.01,10.0,ESE,8.1,-,N/A,,Partly Cloudy,110,2013-10-02 05:53:00